Weather History for Mackinac Island, MI

Change the Weather History Date:

Saturday, March 8, 2014

  Actual Average Record
Temperature  
Mean Temperature 16 °F -  
Max Temperature 24 °F 26 °F 48 °F (1987)
Min Temperature 7 °F 13 °F -6 °F (1982)
Degree Days  
Heating Degree Days 50    
Moisture  
Dew Point 12 °F    
Average Humidity 81    
Maximum Humidity 98    
Minimum Humidity 55    
Precipitation  
Precipitation 0.01 in - - ()
Sea Level Pressure  
Sea Level Pressure 30.12 in    
Wind  
Wind Speed 7 mph (NNW)    
Max Wind Speed 10 mph    
Max Gust Speed 16 mph    
Visibility 10 miles    
Events Snow    
Averages and records for this station are not official NWS values.
T = Trace of Precipitation, MM = Missing Value Source: NWS Daily Summary

Daily Weather History Graph

Daily Weather History Graph

Search for Another Location

Airport:

Trip Planner

Search our weather history database for the weather conditions in past years. The results will help you decide how hot, cold, wet, or windy it might be!

Date:

Astronomy

Mar. 08, 2014 Rise Set
Actual Time 7:04 AM EST 6:34 PM EST
Civil Twilight 6:34 AM EST 7:04 PM EST
Nautical Twilight 6:00 AM EST 7:39 PM EST
Astronomical Twilight 5:25 AM EST 8:14 PM EST
Moon 11:25 AM EST (3/8) 1:51 AM EST (3/8)
Length of Visible Light 12h 29m
Length of Day
11h 30m
First Quarter, 51% of the Moon is Illuminated
Mar 8
First Quarter
Mar 16
Full
Mar 23
Last Quarter
Mar 30
New
Apr 7
First Quarter

Hourly Weather History & Observations

Time (EST) Temp. Windchill Dew Point Humidity Pressure Visibility Wind Dir Wind Speed Gust Speed Precip Events Conditions
12:18 AM 24.1 °F 15.2 °F 22.6 °F 94% 29.97 in 10.0 mi North 8.1 mph - N/A   Overcast
12:38 AM 23.0 °F 12.4 °F 21.4 °F 94% 29.98 in 10.0 mi North 10.4 mph 16.1 mph N/A   Overcast
12:58 AM 22.3 °F 11.5 °F 20.8 °F 94% 29.99 in 10.0 mi North 10.4 mph - N/A   Mostly Cloudy
1:18 AM 21.0 °F 10.6 °F 19.9 °F 96% 30.00 in 10.0 mi North 9.2 mph - N/A   Scattered Clouds
1:38 AM 20.3 °F 9.0 °F 19.4 °F 96% 30.00 in 7.0 mi North 10.4 mph - N/A   Clear
1:58 AM 19.8 °F 9.1 °F 18.9 °F 96% 30.01 in 10.0 mi North 9.2 mph - N/A   Clear
2:18 AM 19.2 °F 10.2 °F 18.3 °F 96% 30.02 in 10.0 mi North 6.9 mph - N/A   Clear
2:38 AM 18.9 °F 9.8 °F 18.1 °F 97% 30.02 in 10.0 mi NNW 6.9 mph - N/A   Clear
2:58 AM 18.1 °F 8.9 °F 17.2 °F 96% 30.02 in 7.0 mi NNW 6.9 mph - N/A   Clear
3:18 AM 16.9 °F 6.4 °F 16.3 °F 98% 30.02 in 7.0 mi NNW 8.1 mph - N/A   Clear
3:38 AM 16.7 °F 7.2 °F 16.3 °F 98% 30.03 in 7.0 mi NW 6.9 mph - N/A   Clear
3:58 AM 17.1 °F 6.6 °F 16.5 °F 98% 30.04 in 7.0 mi NNW 8.1 mph - N/A   Clear
4:18 AM 16.3 °F 6.7 °F 15.6 °F 97% 30.05 in 7.0 mi NNW 6.9 mph - N/A   Clear
4:39 AM 15.6 °F 7.0 °F 14.9 °F 97% 30.05 in 10.0 mi NNW 5.8 mph - N/A   Clear
4:58 AM 15.3 °F 6.6 °F 14.4 °F 96% 30.06 in 10.0 mi NNW 5.8 mph - N/A   Clear
5:18 AM 14.7 °F 4.8 °F 13.6 °F 95% 30.07 in 10.0 mi NNW 6.9 mph - N/A   Clear
5:39 AM 14.5 °F 3.6 °F 13.3 °F 95% 30.09 in 10.0 mi NNW 8.1 mph - N/A   Clear
5:58 AM 14.4 °F 4.3 °F 13.1 °F 95% 30.10 in 10.0 mi NNW 6.9 mph - N/A   Clear
6:18 AM 13.5 °F 4.4 °F 12.2 °F 95% 30.10 in 10.0 mi NNW 5.8 mph - N/A   Clear
6:39 AM 13.1 °F 4.0 °F 11.8 °F 95% 30.12 in 10.0 mi North 5.8 mph - N/A   Clear
6:58 AM 12.7 °F 3.6 °F 11.5 °F 95% 30.12 in 10.0 mi North 5.8 mph - N/A   Clear
7:18 AM 12.0 °F 4.1 °F 10.6 °F 94% 30.13 in 10.0 mi North 4.6 mph - N/A   Clear
7:39 AM 11.8 °F 0.3 °F 10.6 °F 95% 30.13 in 10.0 mi North 8.1 mph - N/A   Clear
7:58 AM 12.9 °F 2.6 °F 11.7 °F 95% 30.15 in 10.0 mi North 6.9 mph - N/A   Clear
8:18 AM 14.0 °F 2.0 °F 12.6 °F 94% 30.15 in 10.0 mi North 9.2 mph - N/A   Clear
8:39 AM 14.7 °F 2.9 °F 12.9 °F 93% 30.15 in 10.0 mi North 9.2 mph - N/A   Clear
8:58 AM 15.3 °F 3.5 °F 12.6 °F 89% 30.16 in 10.0 mi North 9.2 mph - N/A   Clear
9:19 AM 15.8 °F 5.1 °F 12.2 °F 86% 30.17 in 10.0 mi NNE 8.1 mph - N/A   Clear
9:38 AM 16.7 °F 7.2 °F 11.7 °F 81% 30.17 in 10.0 mi North 6.9 mph - N/A   Clear
9:58 AM 18.1 °F 8.9 °F 12.2 °F 78% 30.17 in 10.0 mi North 6.9 mph - N/A   Clear
10:19 AM 19.2 °F 11.3 °F 12.9 °F 76% 30.18 in 10.0 mi North 5.8 mph - N/A   Clear
10:38 AM 19.6 °F 9.7 °F 12.2 °F 73% 30.18 in 10.0 mi North 8.1 mph - N/A   Clear
10:58 AM 21.2 °F 14.9 °F 12.7 °F 70% 30.17 in 10.0 mi North 4.6 mph - N/A   Clear
11:19 AM 21.7 °F 13.2 °F 12.9 °F 69% 30.18 in 10.0 mi North 6.9 mph - N/A   Clear
11:38 AM 21.9 °F 14.5 °F 12.9 °F 68% 30.18 in 10.0 mi North 5.8 mph - N/A   Clear
11:58 AM 22.6 °F 16.5 °F 12.9 °F 66% 30.18 in 10.0 mi North 4.6 mph - N/A   Clear
12:19 PM 23.5 °F 16.4 °F 13.8 °F 66% 30.17 in 10.0 mi North 5.8 mph - N/A   Clear
12:38 PM 20.8 °F 12.1 °F 13.6 °F 74% 30.17 in 10.0 mi WSW 6.9 mph - N/A   Mostly Cloudy
12:58 PM 20.1 °F - 13.5 °F 75% 30.17 in 10.0 mi Calm Calm - N/A Snow Light Snow
1:19 PM 20.3 °F 13.8 °F 14.4 °F 78% 30.17 in 10.0 mi West 4.6 mph - N/A Snow Light Snow
1:38 PM 21.0 °F 16.2 °F 14.0 °F 74% 30.16 in 10.0 mi WSW 3.5 mph - N/A   Scattered Clouds
1:59 PM 21.6 °F - 14.5 °F 74% 30.15 in 10.0 mi Calm Calm - N/A   Clear
2:18 PM 22.1 °F 17.4 °F 14.5 °F 73% 30.14 in 10.0 mi West 3.5 mph - N/A   Clear
2:38 PM 21.6 °F 13.0 °F 14.4 °F 74% 30.14 in 10.0 mi West 6.9 mph - N/A   Clear
2:59 PM 21.9 °F 15.7 °F 14.2 °F 72% 30.14 in 10.0 mi West 4.6 mph - N/A   Clear
3:18 PM 22.8 °F 13.6 °F 13.3 °F 67% 30.13 in 10.0 mi West 8.1 mph - N/A   Scattered Clouds
3:38 PM 22.1 °F 12.8 °F 14.5 °F 73% 30.13 in 10.0 mi West 8.1 mph - N/A   Clear
3:59 PM 21.7 °F 14.3 °F 14.4 °F 73% 30.13 in 10.0 mi WSW 5.8 mph - N/A   Clear
4:18 PM 21.6 °F 16.8 °F 14.0 °F 73% 30.12 in 10.0 mi WSW 3.5 mph - N/A   Clear
4:38 PM 21.7 °F - 13.8 °F 72% 30.12 in 10.0 mi Calm Calm - N/A   Clear
4:59 PM 22.1 °F 15.9 °F 12.6 °F 67% 30.11 in 10.0 mi East 4.6 mph - N/A   Clear
5:18 PM 22.3 °F 16.1 °F 10.6 °F 61% 30.11 in 10.0 mi ENE 4.6 mph - N/A   Clear
5:38 PM 22.1 °F 12.8 °F 8.2 °F 55% 30.12 in 10.0 mi NNE 8.1 mph - N/A   Clear
5:59 PM 20.7 °F 11.9 °F 7.7 °F 57% 30.12 in 10.0 mi NNE 6.9 mph - N/A   Clear
6:18 PM 19.2 °F 10.2 °F 7.7 °F 61% 30.13 in 10.0 mi NNE 6.9 mph - N/A   Clear
6:39 PM 16.7 °F 6.2 °F 6.8 °F 65% 30.13 in 10.0 mi NNE 8.1 mph - N/A   Clear
6:59 PM 15.4 °F 8.1 °F 6.6 °F 68% 30.14 in 10.0 mi North 4.6 mph - N/A   Clear
7:18 PM 14.5 °F 3.6 °F 6.1 °F 69% 30.15 in 10.0 mi North 8.1 mph - N/A   Clear
7:39 PM 13.8 °F 3.7 °F 5.2 °F 69% 30.15 in 10.0 mi North 6.9 mph - N/A   Clear
7:59 PM 12.7 °F 1.4 °F 4.8 °F 71% 30.16 in 10.0 mi North 8.1 mph - N/A   Clear
8:18 PM 12.0 °F 0.5 °F 4.3 °F 71% 30.15 in 10.0 mi North 8.1 mph - N/A   Clear
8:39 PM 10.8 °F 1.2 °F 4.1 °F 75% 30.16 in 10.0 mi NNW 5.8 mph - N/A   Clear
8:59 PM 10.2 °F -0.6 °F 3.9 °F 76% 30.16 in 10.0 mi NNW 6.9 mph - N/A   Clear
9:18 PM 10.9 °F -0.8 °F 4.1 °F 74% 30.16 in 10.0 mi NW 8.1 mph - N/A   Clear
9:39 PM 10.9 °F 0.2 °F 4.3 °F 75% 30.16 in 10.0 mi NNW 6.9 mph - N/A   Clear
9:59 PM 10.9 °F 1.4 °F 4.5 °F 75% 30.16 in 10.0 mi NW 5.8 mph - N/A   Clear
10:18 PM 11.1 °F 3.1 °F 4.5 °F 75% 30.15 in 10.0 mi NW 4.6 mph - N/A   Clear
10:38 PM 10.2 °F 2.0 °F 3.9 °F 76% 30.15 in 10.0 mi WNW 4.6 mph - N/A   Clear
10:58 PM 7.5 °F -2.6 °F 3.0 °F 82% 30.15 in 10.0 mi West 5.8 mph - N/A   Clear
11:18 PM 8.4 °F -0.1 °F 3.7 °F 81% 30.15 in 10.0 mi WNW 4.6 mph - N/A   Clear
11:38 PM 8.4 °F -1.6 °F 3.7 °F 81% 30.15 in 10.0 mi WNW 5.8 mph - N/A   Clear
11:58 PM 7.5 °F -2.6 °F 3.2 °F 82% 30.14 in 10.0 mi West 5.8 mph - N/A   Clear